Location: Bottom School (historical)
(37.9078°N, 89.3593°W)
Time: 21:40:49
(UTC+00:00)

Cosmos 1570 Rocket - Pass Details

Date: 04 July 2022
Orbit: 762 x 788 km, 74.1° (Epoch: 15 August)

Event Time Altitude Azimuth Distance (km) Brightness Sun altitude
Exits shadow 07:46:25 34° 133° (SE) 1,232 4.9 -24.5°
Maximum altitude 07:47:37 40° 102° (ESE) 1,125 4.9 -24.3°
Drops below altitude 10° 07:52:28 10° 34° (NE) 2,311 7.6 -23.9°
Sets 07:54:59 0° 27° (NNE) 3,245 8.7 -23.7°
